Regional Weather Roundup
Issued by NWS

Home | Current Version | Previous Version | Graphics & Text | Print | Product List | Glossary On
Versions: 1 2 3 4 5 6 7 8 9 10 11 12 13 14 15 16 17 18 19 20 21 22 23 24 25 26 27 28 29 30 31 32 33 34 35 36 37 38 39 40 41 42 43 44 45 46 47 48 49 50
000
ASUS43 KMKX 231021
RWRWI

WISCONSIN REGIONAL WEATHER ROUNDUP
NATIONAL WEATHER SERVICE MILWAUKEE/SULLIVAN WI
400 AM CST THU NOV 23 2017

NOTE: "FAIR" INDICATES FEW OR NO CLOUDS BELOW 12,000 FEET WITH NO
SIGNIFICANT WEATHER AND/OR OBSTRUCTIONS TO VISIBILITY.

WIZ001-002-006>008-014>016-023>028-231100-
NORTHWEST WISCONSIN

CITY           SKY/WX    TMP DP  RH WIND       PRES   REMARKS
SUPERIOR ARPT  PTCLDY    20  18  92 S3        29.93F
ASHLAND        CLOUDY    27  18  69 SW7       29.93F WCI  19
HAYWARD        CLOUDY    26  20  77 CALM      29.91F
SIREN          CLOUDY    27  19  72 CALM      29.92F
CUMBERLAND     CLOUDY    23  19  86 CALM      29.92F
RICE LAKE      CLOUDY    26  20  79 CALM      29.94F
CHETEK         CLOUDY    24  20  85 CALM      29.93F
LADYSMITH      CLOUDY    27  21  79 CALM      29.94F
EAU CLAIRE     CLOUDY    19  14  81 NE3       29.92F
MENOMONIE      CLOUDY    23  18  79 CALM      29.94S
NEW RICHMOND   CLOUDY    20  15  82 CALM      29.93S
OSCEOLA        CLOUDY    20  16  85 E3        29.95F
$$

WIZ003>005-009-010-017-018-231100-
NORTH CENTRAL WISCONSIN

CITY           SKY/WX    TMP DP  RH WIND       PRES   REMARKS
MANITOWISH WTR CLOUDY    23  20  87 SW5       29.90S WCI  17
ARBOR VITAE    CLOUDY    25  22  88 SW5       29.90F WCI  19
WOODRUFF       CLOUDY    25  22  88 SW5       29.90F WCI  19
RHINELANDER    CLOUDY    24  21  88 SW7       29.91F WCI  16
EAGLE RIVER    CLOUDY    24  19  81 SW5       29.89F WCI  18
LAND O LAKES   CLOUDY    24  20  83 SW5       29.90F WCI  19
PHILLIPS       CLOUDY    25  20  83 SW5       29.90F WCI  19
TOMAHAWK       CLOUDY    24  20  86 CALM      29.92F
MEDFORD        CLEAR     20  17  87 CALM      29.91F
MERRILL        PTCLDY    24  20  86 CALM      29.93F
$$

WIZ029-030-035-036-043>047-231100-
CENTRAL WISCONSIN

CITY           SKY/WX    TMP DP  RH WIND       PRES   REMARKS
WAUSAU         CLOUDY    25  19  78 SE3       29.93F
MOSINEE        MOCLDY    23  21  93 CALM      29.95F
MARSHFIELD     CLOUDY    23  16  74 S3        29.92F
STEVENS POINT  CLOUDY    25  18  74 CALM      29.96F
WAUPACA        CLOUDY    31  23  72 CALM      29.98S
WAUTOMA        CLOUDY    29  22  75 CALM      29.98S
WISC RAPIDS    CLOUDY    28  18  66 CALM      29.96F
CAMP DOUGLAS   MOCLDY    31  17  55 S3        29.96S
$$

WIZ011>013-019>022-031-037>040-048>050-231100-
NORTHEAST WISCONSIN

CITY           SKY/WX    TMP DP  RH WIND       PRES   REMARKS
ANTIGO         CLOUDY    25  20  81 SW6       29.93F WCI  18
SHAWANO        CLOUDY    30  23  74 CALM      29.97F
OCONTO         CLOUDY    28  22  76 SW5       29.99F WCI  23
STURGEON BAY   CLOUDY    29  23  78 SW8       29.99F WCI  21
GREEN BAY      CLOUDY    31  25  78 SW5       30.00F WCI  26
MANITOWOC      NOT AVBL
APPLETON       CLOUDY    30  19  64 SW5       29.97S WCI  25
CLINTONVILLE   CLOUDY    28  21  74 CALM      29.98F
OSHKOSH        CLOUDY    30  21  69 SW6       29.99S WCI  24
$$

WIZ032>034-041-042-053>061-231100-
SOUTHWEST WISCONSIN

CITY           SKY/WX    TMP DP  RH WIND       PRES   REMARKS
LA CROSSE      CLOUDY    30  19  63 S6        29.96F WCI  24
SPARTA         CLOUDY    27  19  74 CALM      29.97S
VIROQUA        CLOUDY    28  20  72 S5        29.94F WCI  22
BOSCOBEL       CLEAR     31  17  56 S3        29.99S
PRAIRIE DU CHI PTCLDY    32  17  53 S3        29.98F
PLATTEVILLE    CLEAR     28  21  74 S8        29.98F WCI  20
$$

WIZ056-057-062-063-064-067-068-231100-
SOUTH CENTRAL WISCONSIN

CITY           SKY/WX    TMP DP  RH WIND       PRES   REMARKS
REEDSBURG      CLOUDY    31  17  56 SW3       29.97S
BARABOO/DELLS  CLOUDY    32  17  53 CALM      29.97R
LONE ROCK      PTCLDY    32  19  58 VRB5      29.99S WCI  27
MINERAL POINT  CLEAR     32  21  64 S6        29.96F WCI  26
MADISON        CLOUDY    32  18  56 SW6       29.98F WCI  26
MIDDLETON      CLOUDY    32  19  58 SW8       29.98F WCI  25
WATERTOWN      CLOUDY    32  19  59 S10       29.98F WCI  24
MONROE         CLOUDY    32  21  64 S14       29.98F WCI  22
JANESVILLE     CLOUDY    34  21  60 S9        30.01S WCI  26
$$

WIZ051-052-058>065-066-070>072-231100-
SOUTHEAST WISCONSIN

CITY           SKY/WX    TMP DP  RH WIND       PRES   REMARKS
MILWAUKEE      CLOUDY    33  21  61 SW8       30.02F WCI  26
WAUKESHA       CLOUDY    30  19  64 S7        30.01F WCI  23
MILWAUKEE/TIMM CLOUDY    32  18  55 SW7       30.02S WCI  26
RACINE         CLOUDY    33  20  58 SW8       30.04F WCI  26
BURLINGTON     CLOUDY    34  26  71 SW9       30.02S WCI  26
KENOSHA        CLOUDY    32  19  58 SW8       30.03F WCI  25
FOND DU LAC    CLOUDY    32  19  58 SW7       29.98F WCI  26
SHEBOYGAN      CLOUDY    31  22  69 S7        30.00S WCI  24
WEST BEND      CLOUDY    32  19  59 S6        30.00S WCI  26
JUNEAU         CLOUDY    31  19  61 S10       29.99F WCI  22
$$

LSZ147-162-231100-
LAKE SUPERIOR

STATION/POSITION TIME  TEMP    WIND        PRES    WAVE
                       AIR SEA DIR/SP/G            HT/PER
                 (UTC) (F)     (DEG/KT/KT) (MB)    (FT/S)
DEVILS ISLAND    1000   31     270/ 19/ 21 1013.7F
SAXON HARBOR     0940   28     190/  8/ 13 1013.2F
$$

LMZ867-665-643>646-231100-
LAKE MICHIGAN

STATION/POSITION TIME  TEMP    WIND        PRES    WAVE
                       AIR SEA DIR/SP/G            HT/PER
                 (UTC) (F)     (DEG/KT/KT) (MB)    (FT/S)
N MID LAKE BUOY  0950   33 47  240/ 16/ 19 1015.9F   4/ 6
NORTHPORT PIER   0959   31     250/  3/ 12 1014.9F
KEWAUNEE LAKESHO 0954   30     220/  5/  6 1015.1F
SHEBOYGAN LAKESH 1000   32     210/  7/  9 1016.6F
PORT WASHINGTON  0930   33     230/  4/  7 1017.6S
MILWAUKEE LAKESH 1000   33     210/ 12/ 15   N/A
S MID LAKE BUOY  0950   37 47  250/ 17/ 21 1018.1F   4/ 5
KENOSHA   LAKESH 1000   33     210/  7/ 12 1017.3
$$

TC  - TEMPERATURE IN CELSIUS
VSB - VISIBILITY IN STATUTE MILES
WCI - WIND CHILL INDEX
HX  - HEAT INDEX




USA.gov is the U.S. government's official web portal to all federal, state and local government web resources and services.